Location: Fort Worth, Tx
(32.7431°N, 97.3695°W)
Time: 10:22:29
(UTC-04:00)

Explorer 11/Cluster Stage 4 - Pass Details

Date: 27 February 2024
Orbit: 465 x 1219 km, 28.8° (Epoch: 24 April)

Event Time Altitude Azimuth Distance (km) Brightness Sun altitude
Exits shadow 04:23:24 14° 108° (ESE) 2,499 9.5 -45.6°
Drops below altitude 10° 04:24:10 10° 106° (ESE) 2,748 9.7 -45.4°
Sets 04:26:39 0° 104° (ESE) 3,588 10.5 -45.0°
